GW1985 Weather Reports


Display with metric or nautical units.
time (UTC)temp
F
wind
direction
speed
MPH
gust
MPH
rain 1hr
in
rain 24hr
in
rain mn
in
humidity
%
barometer
mb
20260906183057 78 132 5.0 7.0 0.00 0.00 0.00 79 1020.1
20260906182552 78 136 2.0 2.0 0.00 0.00 0.00 81 1020.2
20260906182049 78 239 2.0 3.0 0.00 0.00 0.00 80 1020.2
20260906181544 78 139 1.0 1.0 0.00 0.00 0.00 81 1020.3
20260906181039 79 118 3.0 5.0 0.00 0.00 0.00 79 1020.3
20260906180534 79 118 8.0 10.0 0.00 0.00 0.00 79 1020.3
20260906180033 78 180 1.0 1.0 0.00 0.00 0.00 81 1020.2
20260906175532 78 136 3.0 5.0 0.00 0.00 0.00 81 1020.5
20260906175032 78 86 3.0 5.0 0.00 0.00 0.00 81 1020.6
20260906174531 78 120 2.0 3.0 0.00 0.00 0.00 81 1020.6
20260906174026 77 108 0.0 1.0 0.00 0.00 0.00 82 1020.5
20260906173521 77 146 1.0 2.0 0.00 0.00 0.00 82 1020.5
20260906173017 76 116 5.0 6.0 0.00 0.00 0.00 83 1020.5
20260906172511 76 222 1.0 2.0 0.00 0.00 0.00 83 1020.5
20260906172006 77 154 2.0 3.0 0.00 0.00 0.00 82 1020.6
20260906171501 76 172 1.0 1.0 0.00 0.00 0.00 83 1020.6
20260906170956 76 213 1.0 1.0 0.00 0.00 0.00 83 1020.5
20260906170453 76 185 0.0 0.0 0.00 0.00 0.00 83 1020.7
20260906165949 76 83 2.0 2.0 0.00 0.00 0.00 83 1020.8
20260906165448 76 177 5.0 6.0 0.00 0.00 0.00 83 1020.9
20260906164943 75 164 3.0 5.0 0.00 0.00 0.00 85 1021.0
20260906164442 75 154 3.0 3.0 0.00 0.00 0.00 85 1021.1
20260906163939 74 177 1.0 1.0 0.00 0.00 0.00 87 1020.9
20260906163434 74 117 1.0 1.0 0.00 0.00 0.00 88 1020.9
20260906162933 73 135 1.0 2.0 0.00 0.00 0.00 88 1020.9
20260906162431 74 172 2.0 2.0 0.00 0.00 0.00 87 1021.0
20260906161926 75 182 3.0 3.0 0.00 0.00 0.00 86 1020.9
20260906161426 75 95 4.0 5.0 0.00 0.00 0.00 86 1020.9
20260906160925 74 189 2.0 3.0 0.00 0.00 0.00 88 1021.0
20260906160418 74 84 3.0 3.0 0.00 0.00 0.00 88 1021.1
20260906155916 74 135 1.0 2.0 0.00 0.00 0.00 88 1021.1
20260906155405 74 118 3.0 3.0 0.00 0.00 0.00 88 1021.2
20260906154901 73 108 5.0 6.0 0.00 0.00 0.00 88 1021.1
20260906154355 74 74 7.0 9.0 0.00 0.00 0.00 88 1021.1
20260906153854 74 147 2.0 2.0 0.00 0.00 0.00 87 1021.2
20260906153353 75 110 5.0 6.0 0.00 0.00 0.00 86 1021.0
20260906152849 75 94 1.0 2.0 0.00 0.00 0.00 86 1021.1
20260906152349 75 144 2.0 2.0 0.00 0.00 0.00 86 1021.0
20260906151848 75 150 2.0 2.0 0.00 0.00 0.00 86 1021.2
20260906151344 75 73 3.0 3.0 0.00 0.00 0.00 86 1021.1
20260906150840 75 141 2.0 2.0 0.00 0.00 0.00 85 1021.3
20260906150335 75 198 1.0 2.0 0.00 0.00 0.00 86 1021.1
20260906145834 75 99 4.0 5.0 0.00 0.00 0.00 86 1021.3
20260906145333 75 126 3.0 5.0 0.00 0.00 0.00 86 1021.1
20260906144828 74 167 3.0 5.0 0.00 0.00 0.00 87 1020.9
20260906144323 74 141 5.0 6.0 0.00 0.00 0.00 87 1020.8
20260906143822 75 118 4.0 6.0 0.00 0.00 0.00 87 1020.6
20260906143319 75 106 3.0 3.0 0.00 0.00 0.00 86 1020.7
20260906142814 75 185 0.0 1.0 0.00 0.00 0.00 86 1021.0
20260906142309 75 124 2.0 2.0 0.00 0.00 0.00 86 1020.9
20260906141809 75 96 4.0 5.0 0.00 0.00 0.00 87 1020.9
20260906141303 75 77 4.0 5.0 0.00 0.00 0.00 86 1020.8
20260906140802 75 109 0.0 1.0 0.00 0.00 0.00 87 1020.8
20260906140257 74 175 2.0 3.0 0.00 0.00 0.00 88 1021.0
20260906135755 74 114 3.0 5.0 0.00 0.00 0.00 88 1021.0
20260906135250 73 125 3.0 5.0 0.00 0.00 0.00 88 1020.9
20260906134746 74 136 1.0 1.0 0.00 0.00 0.00 89 1020.7
20260906134241 74 110 2.0 3.0 0.00 0.00 0.00 88 1020.8
20260906133736 73 122 3.0 3.0 0.00 0.00 0.00 89 1020.7
20260906133231 73 108 4.0 5.0 0.00 0.00 0.00 88 1020.9
20260906132727 73 165 1.0 1.0 0.00 0.00 0.00 89 1020.6
20260906132222 73 106 3.0 5.0 0.00 0.00 0.00 90 1020.5
20260906131717 72 117 0.0 1.0 0.00 0.00 0.00 91 1020.7
20260906131207 72 102 3.0 5.0 0.00 0.00 0.00 92 1020.6
20260906130702 71 148 0.0 0.0 0.00 0.00 0.00 93 1020.5
20260906130157 71 101 1.0 1.0 0.00 0.00 0.00 94 1020.6
20260906125655 71 136 1.0 2.0 0.00 0.00 0.00 95 1020.5
20260906125154 70 75 1.0 2.0 0.00 0.00 0.00 96 1020.5
20260906124649 70 128 0.0 1.0 0.00 0.00 0.00 97 1020.6
20260906124144 69 150 0.0 0.0 0.00 0.00 0.00 98 1020.6
20260906123643 69 154 0.0 1.0 0.00 0.00 0.00 99 1020.4
20260906123139 69 154 0.0 0.0 0.00 0.00 0.00 99 1020.5
20260906122638 68 110 0.0 0.0 0.00 0.00 0.00 99 1020.5
20260906122134 68 146 1.0 1.0 0.00 0.00 0.00 99 1020.6
20260906121630 68 136 0.0 0.0 0.00 0.00 0.00 99 1020.5
20260906121126 68 151 0.0 0.0 0.00 0.00 0.00 99 1020.4
20260906120621 68 164 0.0 0.0 0.00 0.00 0.00 99 1020.4
20260906120119 68 159 0.0 0.0 0.00 0.00 0.00 99 1020.2
20260906115619 68 153 0.0 0.0 0.00 0.00 0.00 99 1020.2
20260906115114 68 158 0.0 0.0 0.00 0.00 0.00 99 1020.4
20260906114608 68 157 1.0 2.0 0.00 0.00 0.00 99 1020.3
20260906114103 68 123 0.0 1.0 0.00 0.00 0.00 99 1020.3
20260906113603 68 154 0.0 0.0 0.00 0.00 0.00 99 1020.3
20260906113057 68 150 0.0 0.0 0.00 0.00 0.00 99 1020.2
20260906112552 68 157 0.0 0.0 0.00 0.00 0.00 99 1020.3
20260906112048 68 157 0.0 0.0 0.00 0.00 0.00 99 1020.0
20260906111548 68 157 0.0 0.0 0.00 0.00 0.00 98 1020.1
20260906111043 68 150 0.0 0.0 0.00 0.00 0.00 98 1020.0
20260906110543 68 150 0.0 0.0 0.00 0.00 0.00 98 1020.0
20260906110042 68 164 0.0 0.0 0.00 0.00 0.00 98 1020.1
20260906105537 68 152 0.0 0.0 0.00 0.00 0.00 98 1019.9
20260906105033 69 148 0.0 0.0 0.00 0.00 0.00 98 1019.9
20260906104532 68 122 1.0 1.0 0.00 0.00 0.00 98 1019.7
20260906104026 68 157 0.0 0.0 0.00 0.00 0.00 98 1019.9
20260906103525 68 152 0.0 0.0 0.00 0.00 0.00 98 1019.9
20260906103020 69 130 0.0 0.0 0.00 0.00 0.00 97 1019.9
20260906102520 69 136 0.0 0.0 0.00 0.00 0.00 97 1019.7
20260906102015 69 143 0.0 0.0 0.00 0.00 0.00 97 1020.2
20260906101509 69 153 0.0 0.0 0.00 0.00 0.00 97 1019.8
20260906101004 69 145 0.0 0.0 0.00 0.00 0.00 97 1019.8
20260906100500 69 106 1.0 1.0 0.00 0.00 0.00 96 1019.8
20260906095954 69 133 0.0 1.0 0.00 0.00 0.00 96 1019.7
20260906095449 69 167 0.0 0.0 0.00 0.00 0.00 96 1019.6
20260906094944 69 175 0.0 0.0 0.00 0.00 0.00 95 1019.6
20260906094438 70 175 0.0 0.0 0.00 0.00 0.00 95 1019.5
20260906093934 70 169 0.0 0.0 0.00 0.00 0.00 95 1019.0
20260906093430 70 131 0.0 1.0 0.00 0.00 0.00 94 1019.0
20260906092930 70 162 0.0 1.0 0.00 0.00 0.00 94 1018.9
20260906092430 71 166 0.0 0.0 0.00 0.00 0.00 94 1019.0
20260906091925 71 177 0.0 0.0 0.00 0.00 0.00 94 1018.9
20260906091421 71 154 1.0 2.0 0.00 0.00 0.00 94 1018.8
20260906090917 71 138 0.0 0.0 0.00 0.00 0.00 94 1019.1
20260906090412 71 147 0.0 0.0 0.00 0.00 0.00 94 1019.1
20260906085906 71 181 1.0 2.0 0.00 0.00 0.00 94 1019.1
20260906085400 71 155 0.0 0.0 0.00 0.00 0.00 93 1019.3
20260906084900 71 136 0.0 0.0 0.00 0.00 0.00 93 1019.1
20260906084400 71 129 0.0 1.0 0.00 0.00 0.00 93 1019.3
20260906083854 71 159 0.0 0.0 0.00 0.00 0.00 93 1019.1
20260906083350 71 155 1.0 1.0 0.00 0.00 0.00 93 1018.9
20260906082849 71 143 0.0 0.0 0.00 0.00 0.00 93 1019.0
20260906082344 71 151 0.0 1.0 0.00 0.00 0.00 93 1018.7
20260906081840 71 120 0.0 1.0 0.00 0.00 0.00 93 1019.0
20260906081336 71 130 0.0 1.0 0.00 0.00 0.00 93 1019.0
20260906080831 71 95 1.0 2.0 0.00 0.00 0.00 93 1019.1
20260906080327 72 110 0.0 1.0 0.00 0.00 0.00 93 1019.0
20260906075822 72 99 2.0 2.0 0.00 0.00 0.00 93 1018.9
20260906075322 72 144 1.0 1.0 0.00 0.00 0.00 93 1019.1
20260906074817 72 128 0.0 0.0 0.00 0.00 0.00 92 1018.7
20260906074317 72 126 1.0 1.0 0.00 0.00 0.00 92 1019.0
20260906073816 72 103 3.0 3.0 0.00 0.00 0.00 92 1018.9
20260906073311 72 124 1.0 2.0 0.00 0.00 0.00 92 1018.9
20260906072807 72 121 1.0 1.0 0.00 0.00 0.00 92 1018.9
20260906072305 73 133 1.0 2.0 0.00 0.00 0.00 91 1019.0
20260906071758 73 86 2.0 2.0 0.00 0.00 0.00 91 1019.3
20260906071258 73 168 0.0 0.0 0.00 0.00 0.00 91 1019.3
20260906070755 73 127 2.0 2.0 0.00 0.00 0.00 91 1019.4
20260906070250 73 154 1.0 2.0 0.00 0.00 0.00 91 1019.5
20260906065750 73 159 1.0 1.0 0.00 0.00 0.00 91 1019.3
20260906065245 73 124 1.0 2.0 0.00 0.00 0.00 91 1019.5
20260906064741 73 124 2.0 2.0 0.00 0.00 0.00 91 1019.5
20260906064236 73 141 0.0 1.0 0.00 0.00 0.00 92 1019.4
20260906063731 73 120 1.0 1.0 0.00 0.00 0.00 92 1019.5
20260906063227 73 128 1.0 1.0 0.00 0.00 0.00 91 1019.4
20260906062722 73 130 0.0 0.0 0.00 0.00 0.00 91 1019.4
20260906062221 73 158 0.0 0.0 0.00 0.00 0.00 91 1019.5
20260906061717 73 150 0.0 0.0 0.00 0.00 0.00 91 1019.5
20260906061213 73 120 1.0 1.0 0.00 0.00 0.00 91 1019.5
20260906060709 73 111 2.0 2.0 0.00 0.00 0.00 91 1019.6
20260906060206 73 90 0.0 1.0 0.00 0.00 0.00 91 1019.6
20260906055702 73 109 1.0 1.0 0.00 0.00 0.00 91 1019.4
20260906055156 73 151 0.0 0.0 0.00 0.00 0.00 91 1019.4
20260906054652 73 118 1.0 1.0 0.00 0.00 0.00 92 1019.5
20260906054146 73 138 0.0 1.0 0.00 0.00 0.00 92 1019.4
20260906053643 73 142 0.0 0.0 0.00 0.00 0.00 92 1019.4
20260906053138 72 164 1.0 1.0 0.00 0.00 0.00 92 1019.5
20260906052633 73 150 0.0 0.0 0.00 0.00 0.00 92 1019.4
20260906052130 73 144 1.0 1.0 0.00 0.00 0.00 92 1019.6
20260906051626 73 145 1.0 1.0 0.00 0.00 0.00 92 1019.4
20260906051126 73 154 0.0 0.0 0.00 0.00 0.00 91 1019.4
20260906050621 73 154 0.0 0.0 0.00 0.00 0.00 91 1019.6
20260906050116 73 137 0.0 0.0 0.00 0.00 0.00 91 1019.6
20260906045614 73 153 0.0 0.0 0.00 0.00 0.00 92 1019.5
20260906045110 73 134 1.0 1.0 0.00 0.00 0.00 92 1019.4
20260906044606 73 159 0.0 0.0 0.00 0.00 0.00 92 1019.7
20260906044101 73 154 0.0 0.0 0.00 0.00 0.00 92 1019.6
20260906043557 73 159 0.0 0.0 0.00 0.00 0.00 92 1019.7
20260906043053 73 155 0.0 0.0 0.00 0.00 0.00 92 1019.8
20260906042551 73 155 0.0 0.0 0.00 0.00 0.00 92 1019.9
20260906042046 73 165 0.0 0.0 0.00 0.00 0.00 91 1019.8
20260906041542 73 158 0.0 0.0 0.00 0.00 0.00 91 1019.9
20260906041037 73 145 0.0 0.0 0.00 0.00 0.00 92 1020.0
20260906040532 73 155 0.0 0.0 0.00 0.00 0.00 91 1019.9
20260906040028 73 149 0.0 1.0 0.00 0.00 0.00 91 1019.9
20260906035523 73 139 0.0 1.0 0.00 0.00 0.00 91 1019.8
20260906035019 73 157 0.0 0.0 0.00 0.00 0.00 91 1019.9
20260906034518 73 168 0.0 0.0 0.00 0.00 0.00 91 1019.9
20260906034014 73 158 0.0 0.0 0.00 0.00 0.00 91 1020.1
20260906033508 73 158 0.0 0.0 0.00 0.00 0.00 91 1020.1
20260906033004 73 158 0.0 0.0 0.00 0.00 0.00 90 1020.0
20260906032500 74 167 0.0 0.0 0.00 0.00 0.00 90 1019.8
20260906031954 74 164 0.0 0.0 0.00 0.00 0.00 89 1019.8
20260906031450 74 153 0.0 0.0 0.00 0.00 0.00 89 1019.9
20260906030945 75 150 0.0 0.0 0.00 0.00 0.00 88 1020.1
20260906030440 75 143 0.0 1.0 0.00 0.00 0.00 88 1019.8
20260906025934 75 127 0.0 1.0 0.00 0.00 0.00 87 1019.8
20260906025428 76 125 1.0 1.0 0.00 0.00 0.00 87 1019.8
20260906024927 76 105 1.0 2.0 0.00 0.00 0.00 86 1019.9
20260906024426 76 135 0.0 1.0 0.00 0.00 0.00 86 1020.1
20260906023922 76 166 0.0 0.0 0.00 0.00 0.00 86 1019.8
20260906023418 76 167 1.0 1.0 0.00 0.00 0.00 85 1020.0
20260906022918 77 195 2.0 2.0 0.00 0.00 0.00 85 1019.7
20260906022413 77 47 1.0 1.0 0.00 0.00 0.00 85 1019.6
20260906021909 77 191 0.0 1.0 0.00 0.00 0.00 84 1019.7
20260906021408 77 190 0.0 1.0 0.00 0.00 0.00 84 1019.4
20260906020903 77 162 0.0 0.0 0.00 0.00 0.00 83 1019.3
20260906020357 77 158 0.0 0.0 0.00 0.00 0.00 83 1019.0
20260906015851 77 119 1.0 2.0 0.00 0.00 0.00 83 1018.8
20260906015350 77 111 4.0 6.0 0.00 0.00 0.00 83 1018.9
20260906014845 77 149 0.0 1.0 0.00 0.00 0.00 83 1018.5
20260906014345 78 92 3.0 6.0 0.00 0.00 0.00 83 1018.4
20260906013841 78 119 2.0 2.0 0.00 0.00 0.00 83 1018.3
20260906013337 78 188 0.0 0.0 0.00 0.00 0.00 81 1017.9
20260906012832 78 127 1.0 1.0 0.00 0.00 0.00 80 1017.9
20260906012327 79 100 1.0 2.0 0.00 0.00 0.00 78 1017.8
20260906011826 79 148 0.0 1.0 0.00 0.00 0.00 77 1017.7
20260906011321 79 156 1.0 2.0 0.00 0.00 0.00 77 1017.6
20260906010818 79 134 2.0 2.0 0.00 0.00 0.00 76 1017.4
20260906010314 78 99 2.0 2.0 0.00 0.00 0.00 76 1017.2
20260906005809 79 129 1.0 2.0 0.00 0.00 0.00 75 1017.2
20260906005307 79 144 1.0 1.0 0.00 0.00 0.00 75 1017.4
20260906004806 79 141 1.0 1.0 0.00 0.00 0.00 74 1017.5
20260906004301 80 159 0.0 0.0 0.00 0.00 0.00 73 1017.4
20260906003756 80 123 1.0 1.0 0.00 0.00 0.00 71 1017.0
20260906003252 81 119 2.0 2.0 0.00 0.00 0.00 71 1017.0
20260906002747 81 109 3.0 3.0 0.00 0.00 0.00 70 1017.2
20260906002247 81 139 1.0 1.0 0.00 0.00 0.00 71 1017.0
20260906001742 81 102 2.0 2.0 0.00 0.00 0.00 71 1016.8
20260906001237 81 121 1.0 2.0 0.00 0.00 0.00 71 1016.7
20260906000733 82 144 1.0 2.0 0.00 0.00 0.00 71 1017.0
20260906000234 82 128 0.0 1.0 0.00 0.00 0.00 70 1017.1
20260905235733 82 100 5.0 7.0 0.00 0.00 0.00 71 1017.2
20260905235227 82 154 0.0 0.0 0.00 0.00 0.00 71 1017.3
20260905234723 83 176 2.0 2.0 0.00 0.00 0.00 70 1017.1
20260905234218 83 130 3.0 3.0 0.00 0.00 0.00 70 1017.1
20260905233713 83 101 1.0 2.0 0.00 0.00 0.00 70 1017.0
20260905233212 83 147 1.0 2.0 0.00 0.00 0.00 69 1016.9
20260905232707 83 119 2.0 2.0 0.00 0.00 0.00 69 1017.0
20260905232203 84 155 3.0 3.0 0.00 0.00 0.00 70 1016.8
20260905231659 84 83 7.0 9.0 0.00 0.00 0.00 69 1016.9
20260905231154 84 77 2.0 2.0 0.00 0.00 0.00 69 1016.8
20260905230650 84 117 2.0 3.0 0.00 0.00 0.00 69 1016.8
20260905230148 85 176 1.0 1.0 0.00 0.00 0.00 69 1016.7
20260905225647 85 158 0.0 1.0 0.00 0.00 0.00 69 1016.5
20260905225142 84 70 2.0 3.0 0.00 0.00 0.00 69 1016.5
20260905224641 85 96 5.0 8.0 0.00 0.00 0.00 69 1016.3
20260905224136 85 86 2.0 3.0 0.00 0.00 0.00 68 1016.5
20260905223633 85 110 4.0 5.0 0.00 0.00 0.00 68 1016.6
20260905223130 85 60 2.0 3.0 0.00 0.00 0.00 67 1016.7
20260905222625 85 161 1.0 2.0 0.00 0.00 0.00 66 1016.6
20260905222120 85 133 1.0 2.0 0.00 0.00 0.00 67 1016.6
20260905221615 85 180 1.0 1.0 0.00 0.00 0.00 66 1016.7
20260905221112 84 143 3.0 3.0 0.00 0.00 0.00 67 1016.6
20260905220607 85 98 5.0 6.0 0.00 0.00 0.00 66 1017.0
20260905220103 85 83 2.0 3.0 0.00 0.00 0.00 66 1017.0
20260905215602 86 174 1.0 1.0 0.00 0.00 0.00 66 1016.7
20260905215058 86 133 3.0 5.0 0.00 0.00 0.00 65 1017.0
20260905214554 86 92 2.0 5.0 0.00 0.00 0.00 64 1016.8
20260905214049 85 125 6.0 8.0 0.00 0.00 0.00 66 1017.0
20260905213544 86 157 3.0 5.0 0.00 0.00 0.00 66 1016.8
20260905213039 85 193 0.0 0.0 0.00 0.00 0.00 68 1017.0
20260905212534 85 8 3.0 3.0 0.00 0.00 0.00 68 1016.9
20260905212034 85 102 2.0 3.0 0.00 0.00 0.00 69 1016.9
20260905211529 84 138 5.0 6.0 0.00 0.00 0.00 70 1016.8
20260905211025 85 145 4.0 6.0 0.00 0.00 0.00 69 1016.7
20260905210520 85 186 2.0 2.0 0.00 0.00 0.00 68 1016.8
20260905210020 85 137 3.0 5.0 0.00 0.00 0.00 69 1017.1
20260905205514 85 29 3.0 6.0 0.00 0.00 0.00 67 1017.0
20260905205013 84 167 1.0 1.0 0.00 0.00 0.00 70 1017.5
20260905204508 85 156 4.0 6.0 0.00 0.00 0.00 68 1017.6
20260905204003 84 78 7.0 9.0 0.00 0.00 0.00 71 1017.7
20260905203458 85 115 5.0 7.0 0.00 0.00 0.00 70 1017.7
20260905202953 84 94 3.0 3.0 0.00 0.00 0.00 71 1017.8
20260905202448 84 133 2.0 3.0 0.00 0.00 0.00 71 1017.8
20260905201944 84 87 4.0 6.0 0.00 0.00 0.00 71 1018.0
20260905201439 85 114 3.0 7.0 0.00 0.00 0.00 70 1018.1
20260905200933 84 159 1.0 2.0 0.00 0.00 0.00 70 1018.3
20260905200429 84 168 2.0 2.0 0.00 0.00 0.00 71 1018.5
20260905195927 83 165 0.0 0.0 0.00 0.00 0.00 71 1018.4
20260905195422 83 170 1.0 1.0 0.00 0.00 0.00 72 1018.6
20260905194918 83 179 2.0 3.0 0.00 0.00 0.00 70 1018.6
20260905194417 82 115 1.0 2.0 0.00 0.00 0.00 70 1018.6
20260905193917 82 104 5.0 6.0 0.00 0.00 0.00 72 1018.9
20260905193412 83 117 3.0 3.0 0.00 0.00 0.00 70 1018.7
20260905192907 84 167 1.0 2.0 0.00 0.00 0.00 71 1018.7
20260905192403 83 190 0.0 1.0 0.00 0.00 0.00 72 1018.7
20260905191857 83 165 0.0 1.0 0.00 0.00 0.00 72 1018.9
20260905191356 82 156 1.0 1.0 0.00 0.00 0.00 75 1018.9
20260905190855 83 71 1.0 2.0 0.00 0.00 0.00 73 1019.3
20260905190348 81 168 0.0 0.0 0.00 0.00 0.00 75 1018.7
20260905185848 81 187 1.0 1.0 0.00 0.00 0.00 76 1018.8
20260905185343 81 70 1.0 2.0 0.00 0.00 0.00 76 1019.0
20260905184842 82 184 0.0 0.0 0.00 0.00 0.00 75 1019.0
20260905184341 82 202 1.0 1.0 0.00 0.00 0.00 76 1018.9
20260905183839 80 171 0.0 0.0 0.00 0.00 0.00 80 1019.3